Regional Weather Roundup
Issued by NWS

Home | Current Version | Previous Version | Graphics & Text | Print | Product List | Glossary On
Versions: 1 2 3 4 5 6 7 8 9 10 11 12 13 14 15 16 17 18 19 20 21 22 23 24 25 26 27 28 29 30 31 32 33 34 35 36 37 38 39 40 41 42 43 44 45 46 47 48 49
000
ASUS45 KTFX 021810
RWRMT
MONTANA REGIONAL WEATHER ROUNDUP
NATIONAL WEATHER SERVICE GREAT FALLS MT
1200 PM MDT SUN AUG 02 2015

NOTE: "FAIR" INDICATES FEW OR NO CLOUDS BELOW 12000 FEET WITH NO
SIGNIFICANT WEATHER AND/OR OBSTRUCTIONS TO VISIBILITY.

MTZ001>007-043-021900-
WEST OF THE DIVIDE

CITY           SKY/WX    TMP DP  RH WIND       PRES   REMARKS
KALISPELL      PTCLDY    80  39  23 CALM      29.99F
MISSOULA       SUNNY     73  39  29 CALM      30.04F
BUTTE          SUNNY     79  29  16 N5        30.17F
MULLAN PASS    MOSUNNY   76  29  17 MISG      30.19S
DEER LODGE       N/A     79  37  22 CALM      30.14F
EUREKA           N/A     81  43  26 CALM      29.98F
HAMILTON         N/A     79  43  27 N3        30.03F
LIBBY            N/A     77  32  19 NE3       29.97F
PLAINS           N/A     80  38  22 CALM      29.98F
RONAN            N/A     80  46  30 W6        30.06F
$$

MTZ008-052>055-021900-
SOUTHWEST MONTANA

CITY           SKY/WX    TMP DP  RH WIND       PRES   REMARKS
BOZEMAN        SUNNY     82  38  20 CALM      30.10F
DILLON         SUNNY     77  40  26 N5        30.13F
W YELLOWSTONE  SUNNY     75  39  27 CALM      30.23F
THREE FORKS      N/A     80  39  23 NE2       30.08F
TWIN BRIDGES     N/A     75  42  30 S6        30.10F
$$

MTZ009-010-012-014-046-048-049-054-021900-
EAST SLOPES AND CENTRAL MONTANA

CITY           SKY/WX    TMP DP  RH WIND       PRES   REMARKS
CUT BANK       SUNNY     74  52  46 S10       30.08F
GREAT FALLS    MOSUNNY   73  52  47 NW6       30.09F
MALMSTROM AFB  SUNNY     72  54  53 SW3G13    30.09F
HELENA         SUNNY     80  50  34 VRB3      30.07F
CONRAD           N/A     74  57  55 N3        30.10F
$$

MTZ011-013-016-021-045-047-050-051-021900-
NORTH CENTRAL MONTANA

CITY           SKY/WX    TMP DP  RH WIND       PRES   REMARKS
HAVRE          SUNNY     80  51  36 E8        30.05F
LEWISTOWN      SUNNY     77  49  37 E15       30.11F
CHINOOK          N/A     75  54  46 NE9       30.05F
FORT BENTON      N/A     75  54  46 SW6       30.06F
$$

MTZ017>020-022>027-061-062-021900-
NORTHEAST MONTANA

CITY           SKY/WX    TMP DP  RH WIND       PRES   REMARKS
GLASGOW        SUNNY     79  48  33 N9        30.04S
JORDAN           N/A     80  47  31 N7        30.05S
SIDNEY         SUNNY    N/A N/A N/A NW12      30.00S
WOLF POINT     SUNNY     79  48  33 VRB7      30.03S
MALTA            N/A     78  55  44 CALM      30.02F
PLENTYWOOD       N/A     72  52  49 NW13G22   30.02S
POPLAR           N/A     75  48  38 NW10G16   30.03S
SCOBEY           N/A     72  48  42 N10       30.04R
$$

MTZ028>42-056>058-021900-
SOUTHCENTRAL AND SOUTHEAST MONTANA

CITY           SKY/WX    TMP DP  RH WIND       PRES   REMARKS
BAKER          SUNNY     81  47  30 NE13      30.04S
BILLINGS       MOSUNNY   78  48  34 N8        30.07F
LIVINGSTON     SUNNY     86  29  12 CALM      30.08F
MILES CITY     SUNNY     81  49  32 E13G21    30.02S
EKALAKA          N/A     79  44  28 NE9       30.03S
FORSYTH          N/A     81  48  32 NE13G26   30.01F
LAUREL           N/A     79  48  33 E6        30.05F
ROUNDUP          N/A     79  45  29 NE8       29.99F
$$

REGIONAL REPORTS...DAKOTAS

CITY           SKY/WX    TMP DP  RH WIND       PRES   REMARKS
WILLISTON      SUNNY     77  50  38 N12G17    30.00F
MINOT          SUNNY     74  50  42 N9G17     29.95R
DICKINSON      SUNNY     76  51  41 N8G20     29.99F
BEACH          FAIR      75  50  41 N14       30.04S
CROSBY         FAIR      73  50  43 N13G18    30.00S
BISMARCK       MOSUNNY   78  54  43 NW17      29.95S
GRAND FORKS    PTSUNNY   75  54  47 N14       29.81S
FARGO          PTSUNNY   75  56  51 N20       29.82R
BUFFALO SD       N/A     81  47  30 NE14G21   29.96S
RAPID CITY     MOSUNNY   80  55  42 VRB7      30.02R
$$

REGIONAL REPORTS...WYOMING/IDAHO/WASHINGTON

CITY           SKY/WX    TMP DP  RH WIND       PRES   REMARKS
GILLETTE       SUNNY     90  38  16 N14G26    30.03S
SHERIDAN       SUNNY     87  39  18 NW18      30.04R
BUFFALO WY     SUNNY     87  40  19 N17       30.09S
CODY           SUNNY     81  45  28 NE13      30.11F
YELLOWSTONE LA   N/A     66  39  37 SE5       30.35F
IDAHO FALLS    SUNNY     86  38  18 NE8       30.07F
SALMON         SUNNY     75  45  33 CALM      30.04F
BOISE          SUNNY     92  35  13 VRB7      29.91F
SPOKANE        CLOUDY    85  41  21 NE6       29.93F
$$

REGIONAL REPORTS...ALBERTA

CITY           SKY/WX    TMP DP  RH WIND       PRES   REMARKS
EDMONTON       SUNNY     75  52  43 S6        30.01F
CALGARY        MOSUNNY   75  54  46 S15G24    30.04F
LETHBRIDGE     MOSUNNY   73  54  49 S8G22     30.05F
MEDICINE HAT   MOSUNNY   79  48  34 CALM      30.05F
WATERTON GATE    N/A     72  54  53 NE5         N/A
CARDSTON         N/A     73  52  46 SE3         N/A
ONEFOUR          N/A     77  45  31 E10         N/A
$$

REGIONAL REPORTS...SASKATCHEWAN

CITY           SKY/WX    TMP DP  RH WIND       PRES   REMARKS
SWIFT CURRENT  MOSUNNY   70  54  56 N7        30.07F
REGINA         MOSUNNY   73  52  46 N13G22    30.01F
SASKATOON      MOSUNNY   72  48  43 NW6       30.04S
CYPRESS HILLS    N/A     70  48  46 NE3         N/A
VAL MARIE        N/A     73  50  43 NE7         N/A
ROCKGLEN         N/A     68  48  49 NW10        N/A
ASSINIBOIA       N/A     73  54  49 S5          N/A
$$



USA.gov is the U.S. government's official web portal to all federal, state and local government web resources and services.